Terminal Aerodrome Forecast
Issued by NWS

Home | Current Version | Previous Version | Text Only | Print | Product List | Glossary On
Versions: 1 2 3 4 5 6 7 8 9 10 11 12 13 14 15 16 17 18 19 20 21 22 23 24 25
000
FTUS43 KDLH 021322 AAA
TAFHIB
TAF AMD
KHIB 021322Z 0213/0312 13005KT P6SM -RA VCTS OVC009CB
     FM021400 15007KT P6SM VCSH SCT050
     FM021800 15009G15KT P6SM FEW050
     FM030100 13005KT 5SM BR SCT005=

USA.gov is the U.S. government's official web portal to all federal, state and local government web resources and services.